Volver al catálogo

IRIDIUM 33 DEB

ActivoPO
NORAD 38022·DEBRIS·🇺🇸 United States

Lanzado Sep 14, 1997 desde Baikonur Cosmodrome

Loading…

Próximos Pases (próximas 24 horas)

TLE

ActualizadoSource: Space-Track

Época: Sep 14, 2026, 06:33 UTC

1 38022U 97051YJ  26257.27354944  .00001889  00000-0  55253-3 0  9996
2 38022  86.2618 255.5475 0042102 216.1305 143.7050 14.43018314731659

Sigue IRIDIUM 33 DEB en tiempo real con AllMySat

Download on the App Store